This is the latest recevied weather packets stored in our database for station/object KA9CBS. If no packets are shown the sender has not sent any weather packets the latest 1 day(s).
| Time | Temp. | Humidity | Pressure | Rain* | Wind** | Luminosity | Snow |
|---|---|---|---|---|---|---|---|
| 1778048417 | 7.22° C | 99% | 1013.3 hPa | 0 mm | - | 0 W/m² | - |
| 1778047509 | 7.22° C | 99% | 1012.8 hPa | 0 mm | - | 0 W/m² | - |
| 1778046599 | 7.22° C | 99% | 1013 hPa | 0 mm | - | 0 W/m² | - |
| 1778046296 | 7.22° C | 99% | 1013.4 hPa | 0 mm | - | 0 W/m² | - |
| 1778045690 | 7.22° C | 99% | 1013.1 hPa | 0 mm | - | 0 W/m² | - |
| 1778045087 | 7.22° C | 99% | 1013.1 hPa | 0 mm | - | 0 W/m² | - |
| 1778044784 | 7.22° C | 99% | 1013.1 hPa | 0 mm | - | 0 W/m² | - |
| 1778044480 | 7.22° C | 99% | 1012.9 hPa | 0 mm | - | 0 W/m² | - |
| 1778043875 | 7.22° C | 99% | 1013.3 hPa | 0 mm | - | 0 W/m² | - |
| 1778043572 | 7.22° C | 99% | 1013.3 hPa | 0 mm | - | 0 W/m² | - |
| 1778043268 | 7.22° C | 99% | 1013.3 hPa | 1.78 mm | - | 0 W/m² | - |
| 1778037680 | 8.33° C | 99% | 1012.9 hPa | 6.1 mm | - | 0 W/m² | - |
| 1778037377 | 8.33° C | 99% | 1012.9 hPa | 6.1 mm | - | 0 W/m² | - |
| 1778037074 | 8.33° C | 99% | 1012.9 hPa | 4.83 mm | - | 0 W/m² | - |
| 1778036773 | 8.33° C | 99% | 1012 hPa | 6.1 mm | - | 0 W/m² | - |
| 1778036470 | 8.33° C | 99% | 1012.1 hPa | 0 mm | - | 0 W/m² | - |
| 1778036166 | 8.89° C | 99% | 1012.1 hPa | 0 mm | - | 0 W/m² | - |
| 1778035862 | 8.89° C | 99% | 1011.9 hPa | 1.78 mm | - | 0 W/m² | - |
| 1778035560 | 8.89° C | 99% | 1011.4 hPa | 1.27 mm | - | 0 W/m² | - |
| 1778035256 | 8.89° C | 99% | 1011.6 hPa | 3.05 mm | - | 0 W/m² | - |
| 1778034952 | 8.89° C | 99% | 1012 hPa | 3.05 mm | - | 0 W/m² | - |
| 1778034650 | 8.33° C | 99% | 1012.2 hPa | 1.27 mm | - | 0 W/m² | - |
| 1778034347 | 8.33° C | 99% | 1011.6 hPa | 1.78 mm | - | 0 W/m² | - |
| 1778034045 | 8.33° C | 99% | 1011.8 hPa | 4.83 mm | - | 0 W/m² | - |
| 1778033742 | 8.33° C | 99% | 1011.8 hPa | 4.32 mm | - | 0 W/m² | - |
* Rain latest hour (hover to see other rain measurements)
** Current wind speed in m/s (hover to see current wind gust speed)